Dunkirk, NY

2:19 PM EDT on August 23, 2017 (GMT -0400)
Chautauqua County-Dunkirk

Weather History for KDKK - February, 2013

Change the Weather History Date:

Friday, February 1, 2013

  Actual Average Record
Temperature  
Mean Temperature 26 °F -  
Max Temperature 32 °F 34 °F 62 °F (1988)
Min Temperature 19 °F 19 °F -10 °F (1948)
Degree Days  
Heating Degree Days 40    
Moisture  
Dew Point 11 °F    
Average Humidity 49    
Maximum Humidity 68    
Minimum Humidity 31    
Precipitation  
Precipitation 0.00 in - - ()
Sea Level Pressure  
Sea Level Pressure 30.06 in    
Wind  
Wind Speed 16 mph (WSW)    
Max Wind Speed 21 mph    
Max Gust Speed 34 mph    
Visibility 4 miles    
Events Snow    
Averages and records for this station are not official NWS values.
T = Trace of Precipitation, MM = Missing Value Source: NWS Daily Summary

Daily Weather History Graph

Daily Weather History Graph

Search for Another Location

Airport or City:

Trip Planner

Search our weather history database for the weather conditions in past years. The results will help you decide how hot, cold, wet, or windy it might be!

Date:

Astronomy

Feb. 01, 2013 Rise Set
Actual Time 7:30 AM EST 5:31 PM EST
Civil Twilight 7:00 AM EST 6:01 PM EST
Nautical Twilight 6:27 AM EST 6:34 PM EST
Astronomical Twilight 5:54 AM EST 7:07 PM EST
Moon 11:45 PM EST (2/1) 9:54 AM EST (2/1)
Length of Visible Light 11h 00m
Length of Day
10h 00m
Waning Gibbous, 70% of the Moon is Illuminated
Feb 1
Waning Gibbous
Feb 3
Last Quarter
Feb 10
New
Feb 17
First Quarter
Feb 25
Full

Hourly Weather History & Observations

Time (EST) Temp. Windchill Dew Point Humidity Pressure Visibility Wind Dir Wind Speed Gust Speed Precip Events Conditions
12:00 AM 30.2 °F 18.1 °F 14.0 °F 51% 29.75 in 1.2 mi West 18.4 mph 28.8 mph 0.00 in Snow Light Snow
12:11 AM 30.2 °F 18.5 °F 14.0 °F 51% 29.75 in 2.0 mi West 17.3 mph 29.9 mph 0.00 in Snow Light Snow
12:18 AM 30.2 °F 18.9 °F 12.2 °F 47% 29.75 in 3.0 mi West 16.1 mph 29.9 mph 0.00 in Snow Light Snow
12:30 AM 30.2 °F 17.8 °F 10.4 °F 44% 29.75 in 8.0 mi West 19.6 mph 28.8 mph 0.00 in   Overcast
12:53 AM 30.9 °F 19.1 °F 10.9 °F 43% 29.78 in 5.0 mi West 18.4 mph 32.2 mph 0.00 in Snow Light Snow
1:53 AM 30.9 °F 19.1 °F 7.0 °F 37% 29.79 in 10.0 mi WNW 18.4 mph 31.1 mph 0.00 in   Overcast
2:53 AM 30.9 °F 21.2 °F 8.1 °F 38% 29.80 in 10.0 mi West 12.7 mph 20.7 mph N/A   Overcast
3:53 AM 32.0 °F 24.2 °F 9.0 °F 38% 29.82 in 10.0 mi West 9.2 mph 21.9 mph 0.00 in   Overcast
4:53 AM 30.9 °F 19.8 °F 10.9 °F 43% 29.84 in 10.0 mi West 16.1 mph 24.2 mph N/A   Overcast
5:18 AM 30.2 °F 19.8 °F 12.2 °F 47% 29.82 in 3.0 mi West 13.8 mph 25.3 mph 0.00 in Snow Light Snow
5:47 AM 30.2 °F 18.5 °F 12.2 °F 47% 29.84 in 1.8 mi WNW 17.3 mph 29.9 mph 0.00 in Snow Light Snow
5:53 AM 28.9 °F 17.3 °F 12.9 °F 51% 29.87 in 1.8 mi West 16.1 mph 29.9 mph 0.00 in Snow Light Snow
5:57 AM 28.4 °F 17.5 °F 12.2 °F 51% 29.85 in 3.0 mi West 13.8 mph 26.5 mph 0.00 in Snow Light Snow
6:21 AM 30.2 °F 18.9 °F 12.2 °F 47% 29.86 in 2.5 mi West 16.1 mph 28.8 mph 0.00 in Snow Light Snow
6:28 AM 30.2 °F 19.3 °F 10.4 °F 44% 29.86 in 4.0 mi WNW 15.0 mph 27.6 mph 0.00 in Snow Light Snow
6:53 AM 30.0 °F 19.1 °F 10.9 °F 45% 29.91 in 4.0 mi WNW 15.0 mph 26.5 mph 0.00 in Snow Light Snow
7:23 AM 28.4 °F 16.2 °F 12.2 °F 51% 29.90 in 2.5 mi West 17.3 mph 29.9 mph 0.00 in Snow Light Snow
7:33 AM 30.2 °F 18.9 °F 10.4 °F 44% 29.91 in 3.0 mi West 16.1 mph 28.8 mph 0.00 in Snow Light Snow
7:48 AM 30.2 °F 17.4 °F 12.2 °F 47% 29.92 in 2.5 mi West 20.7 mph 31.1 mph 0.00 in Snow Light Snow
7:53 AM 30.0 °F 17.9 °F 12.0 °F 47% 29.95 in 2.5 mi West 18.4 mph 31.1 mph 0.00 in Snow Light Snow
7:58 AM 30.2 °F 18.1 °F 10.4 °F 44% 29.92 in 1.2 mi West 18.4 mph 26.5 mph 0.00 in Snow Light Snow
8:28 AM 30.2 °F 19.3 °F 10.4 °F 44% 29.94 in 2.0 mi West 15.0 mph 27.6 mph 0.00 in Snow Light Snow
8:40 AM 30.2 °F 19.8 °F 12.2 °F 47% 29.95 in 3.0 mi West 13.8 mph 34.5 mph 0.00 in Snow Light Snow
8:48 AM 30.2 °F 19.8 °F 10.4 °F 44% 29.95 in 5.0 mi West 13.8 mph 27.6 mph 0.00 in Snow Light Snow
8:53 AM 30.0 °F 19.1 °F 10.9 °F 45% 29.99 in 2.5 mi West 15.0 mph 28.8 mph 0.00 in Snow Light Snow
9:03 AM 30.2 °F 18.9 °F 10.4 °F 44% 29.96 in 1.8 mi West 16.1 mph 31.1 mph 0.00 in Snow Light Snow
9:07 AM 30.2 °F 18.1 °F 10.4 °F 44% 29.97 in 2.0 mi West 18.4 mph 28.8 mph 0.00 in Snow Light Snow
9:20 AM 30.2 °F 18.9 °F 10.4 °F 44% 29.97 in 4.0 mi West 16.1 mph 27.6 mph 0.00 in Snow Light Snow
10:05 AM 30.2 °F 18.5 °F 10.4 °F 44% 29.99 in 6.0 mi West 17.3 mph 26.5 mph 0.00 in Snow Light Snow
10:53 AM 32.0 °F 20.5 °F 10.9 °F 42% 30.05 in 10.0 mi West 18.4 mph 28.8 mph 0.00 in   Overcast
11:53 AM 32.0 °F 20.1 °F 10.0 °F 40% 30.06 in 9.0 mi West 19.6 mph 29.9 mph 0.00 in   Overcast
12:53 PM 32.0 °F 19.8 °F 8.1 °F 37% 30.07 in 10.0 mi West 20.7 mph 29.9 mph N/A   Overcast
1:53 PM 32.0 °F 21.6 °F 8.1 °F 37% 30.08 in 10.0 mi West 15.0 mph 31.1 mph N/A   Overcast
2:43 PM 30.2 °F 18.5 °F 10.4 °F 44% 30.07 in 1.8 mi West 17.3 mph 29.9 mph 0.00 in Snow Light Snow
2:53 PM 30.0 °F 18.7 °F 8.1 °F 40% 30.10 in 3.0 mi West 16.1 mph 28.8 mph 0.00 in Snow Light Snow
3:53 PM 30.0 °F 18.7 °F 10.0 °F 43% 30.13 in 2.5 mi West 16.1 mph 28.8 mph 0.00 in Snow Light Snow
4:03 PM 30.2 °F 18.5 °F 8.6 °F 40% 30.10 in 6.0 mi West 17.3 mph 28.8 mph 0.00 in Snow Light Snow
4:53 PM 32.0 °F 22.5 °F 3.9 °F 31% 30.14 in 10.0 mi West 12.7 mph 21.9 mph 0.00 in   Overcast
5:49 PM 28.4 °F 15.8 °F 12.2 °F 51% 30.14 in 1.8 mi WSW 18.4 mph 27.6 mph 0.00 in Snow Light Snow
5:53 PM 28.0 °F 14.9 °F 12.0 °F 51% 30.17 in 1.5 mi WSW 19.6 mph 27.6 mph 0.00 in Snow Light Snow
6:08 PM 28.4 °F 15.8 °F 12.2 °F 51% 30.14 in 3.0 mi West 18.4 mph 25.3 mph 0.00 in Snow Light Snow
6:14 PM 28.4 °F 16.2 °F 12.2 °F 51% 30.15 in 1.8 mi West 17.3 mph 24.2 mph 0.00 in Snow Light Snow
6:22 PM 30.2 °F 20.8 °F 12.2 °F 47% 30.15 in 3.0 mi West 11.5 mph 23.0 mph 0.00 in Snow Light Snow
6:29 PM 28.4 °F 17.0 °F 12.2 °F 51% 30.16 in 1.8 mi West 15.0 mph 25.3 mph 0.00 in Snow Light Snow
6:40 PM 28.4 °F 19.7 °F 12.2 °F 51% 30.15 in 1.0 mi West 9.2 mph 32.2 mph 0.00 in Snow Light Snow
6:44 PM 30.2 °F 20.8 °F 10.4 °F 44% 30.16 in 2.5 mi West 11.5 mph 26.5 mph 0.00 in Snow Light Snow
6:51 PM 30.2 °F 18.5 °F 10.4 °F 44% 30.16 in 9.0 mi West 17.3 mph 25.3 mph 0.00 in   Overcast
6:53 PM 30.0 °F 17.2 °F 10.9 °F 45% 30.19 in 7.0 mi West 20.7 mph 27.6 mph 0.00 in Snow Light Snow
7:10 PM 30.2 °F 18.9 °F 10.4 °F 44% 30.16 in 2.5 mi West 16.1 mph 27.6 mph 0.00 in Snow Light Snow
7:19 PM 21.2 °F 8.3 °F 10.4 °F 63% 30.16 in 4.0 mi West 13.8 mph 26.5 mph 0.00 in Snow Light Snow
7:39 PM 28.4 °F 15.4 °F 12.2 °F 51% 30.17 in 1.5 mi WSW 19.6 mph 26.5 mph 0.00 in Snow Light Snow
7:42 PM 28.4 °F 17.5 °F 15.8 °F 59% 30.17 in 0.8 mi SW 13.8 mph 26.5 mph 0.00 in Snow Light Snow
7:47 PM 28.4 °F 18.5 °F 15.8 °F 59% 30.17 in 0.8 mi SW 11.5 mph 26.5 mph 0.00 in Snow Light Snow
7:51 PM 28.4 °F 18.0 °F 15.8 °F 59% 30.18 in 1.2 mi SW 12.7 mph 20.7 mph 0.00 in Snow Light Snow
7:53 PM 28.9 °F 20.4 °F 14.0 °F 54% 30.20 in 1.2 mi WSW 9.2 mph 20.7 mph 0.00 in Snow Light Snow
8:05 PM 30.2 °F 20.8 °F 14.0 °F 51% 30.18 in 2.5 mi WSW 11.5 mph 18.4 mph 0.00 in Snow Light Snow
8:10 PM 30.2 °F 19.8 °F 14.0 °F 51% 30.18 in 1.0 mi SW 13.8 mph 20.7 mph 0.00 in Snow Light Snow
8:14 PM 30.2 °F 19.8 °F 14.0 °F 51% 30.18 in 0.8 mi SW 13.8 mph 23.0 mph 0.00 in Snow Light Snow
8:24 PM 26.6 °F 14.7 °F 14.0 °F 59% 30.18 in 0.8 mi SW 15.0 mph 23.0 mph 0.00 in Snow Light Snow
8:27 PM 26.6 °F 15.2 °F 12.2 °F 55% 30.18 in 1.0 mi SW 13.8 mph 23.0 mph 0.00 in Snow Light Snow
8:37 PM 26.6 °F 13.8 °F 12.2 °F 55% 30.19 in 1.5 mi SW 17.3 mph 23.0 mph 0.00 in Snow Light Snow
8:43 PM 26.6 °F 14.7 °F 12.2 °F 55% 30.19 in 1.0 mi SW 15.0 mph 23.0 mph 0.00 in Snow Light Snow
8:53 PM 26.1 °F 14.0 °F 12.9 °F 58% 30.22 in 1.0 mi SW 15.0 mph 23.0 mph 0.00 in Snow Light Snow
9:05 PM 26.6 °F 15.7 °F 12.2 °F 55% 30.19 in 0.5 mi SW 12.7 mph 21.9 mph 0.00 in Snow Snow
9:24 PM 26.6 °F 15.7 °F 12.2 °F 55% 30.19 in 0.5 mi SW 12.7 mph - 0.00 in Snow Snow
9:35 PM 26.6 °F 15.2 °F 12.2 °F 55% 30.19 in 1.0 mi SW 13.8 mph - 0.00 in Snow Light Snow
9:38 PM 26.6 °F 15.2 °F 12.2 °F 55% 30.19 in 1.2 mi SW 13.8 mph - 0.00 in Snow Light Snow
9:47 PM 26.6 °F 14.7 °F 12.2 °F 55% 30.19 in 1.0 mi SW 15.0 mph 24.2 mph 0.00 in Snow Light Snow
9:53 PM 26.1 °F 14.5 °F 12.0 °F 55% 30.22 in 1.2 mi SW 13.8 mph - 0.00 in Snow Light Snow
10:02 PM 26.6 °F 14.3 °F 10.4 °F 51% 30.19 in 3.0 mi SW 16.1 mph 21.9 mph 0.00 in Snow Light Snow
10:24 PM 19.4 °F 5.5 °F 10.4 °F 68% 30.20 in 2.0 mi SW 15.0 mph 21.9 mph 0.00 in Snow Light Snow
10:32 PM 23.0 °F 8.7 °F 10.4 °F 59% 30.20 in 1.0 mi SW 18.4 mph 27.6 mph 0.00 in Snow Light Snow
10:39 PM 24.8 °F 12.4 °F 10.4 °F 54% 30.20 in 0.8 mi SSW 15.0 mph 26.5 mph 0.00 in Snow Light Snow
10:51 PM 24.8 °F 12.4 °F 10.4 °F 54% 30.20 in 1.0 mi SSW 15.0 mph 24.2 mph 0.00 in Snow Light Snow
10:53 PM 25.0 °F 13.1 °F 10.9 °F 55% 30.22 in 0.8 mi SSW 13.8 mph 24.2 mph 0.00 in Snow Light Snow
11:13 PM 26.6 °F 14.7 °F 10.4 °F 51% 30.19 in 1.2 mi SSW 15.0 mph 23.0 mph 0.00 in Snow Light Snow
11:18 PM 24.8 °F 12.4 °F 8.6 °F 50% 30.19 in 2.0 mi SSW 15.0 mph 26.5 mph 0.00 in Snow Light Snow
11:28 PM 24.8 °F 11.9 °F 6.8 °F 46% 30.19 in 6.0 mi SSW 16.1 mph - 0.00 in   Haze
11:39 PM 24.8 °F 12.4 °F 6.8 °F 46% 30.19 in 10.0 mi SW 15.0 mph 23.0 mph 0.00 in   Overcast
11:53 PM 23.0 °F 10.6 °F 6.1 °F 48% 30.22 in 10.0 mi SSW 13.8 mph - 0.00 in   Overcast